Temperature
20 19 20 19 19 19 19 19 19 19 19 19 19 19 19 19 19 19 19 19 19 19 19 19 19 19 18 18 18 18 18 18 18 18 18 18 18 18 18 18 18 18 18
20 19 19 19 19 19 19 19 19 19 19 19 19 19 19 19 19 19 19 19 19 19 19 19 18 18 18 18 18 18 18 18 18 18 18 18 18 18 18 18 18 17 18
20 19 19 19 19 19 19 19 19 19 19 19 19 19 19 19 19 19 19 18 19 19 19 18 18 18 18 18 18 18 18 18 18 18 18 18 18 18 18 18 18 18 18
20 19 19 19 19 19 19 19 19 19 19 19 19 19 19 19 19 19 18 19 19 19 18 18 18 18 18 18 18 18 18 18 18 18 18 18 17 18 18 18 18 18 18
20 19 19 19 19 19 19 19 19 19 19 19 19 19 19 19 19 18 18 18 19 19 18 18 18 18 18 18 18 18 18 18 18 18 17 17 17 18 18 18 17 17 17
20 20 19 20 20 19 19 19 19 19 19 19 19 19 19 19 18 18 18 18 19 18 18 18 18 18 18 18 18 18 18 18 18 17 17 17 17 18 18 18 17 17 17
20 20 19 20 20 19 19 19 19 19 19 19 19 19 19 19 18 18 18 18 18 18 18 18 18 18 18 18 18 18 18 18 18 18 18 17 17 18 18 17 17 17 17
20 20 19 20 20 20 19 19 19 19 19 19 19 19 19 19 19 18 18 18 18 18 18 18 18 18 18 18 18 18 18 18 18 18 18 18 18 18 18 17 17 17 17
20 20 20 19 19 20 20 19 19 19 19 19 19 19 19 19 19 19 18 18 18 18 18 18 18 18 18 18 18 18 18 18 18 18 18 18 18 17 17 17 17 17 17
20 20 20 20 19 19 19 19 19 19 19 19 19 19 19 19 18 18 18 18 18 18 18 18 18 18 18 18 18 18 18 18 18 18 18 18 18 17 17 17 17 17 17
20 20 20 20 20 19 19 19 19 19 19 19 19 19 19 18 18 18 18 18 18 18 18 18 18 18 18 18 18 18 18 18 18 18 18 18 18 17 17 17 17 17 17
20 20 20 20 20 19 19 19 19 19 19 18 18 18 18 18 18 18 18 18 18 18 18 18 18 18 18 18 18 18 18 18 18 18 18 18 18 17 17 17 17 17 17
21 20 20 20 19 19 19 19 19 19 19 18 19 18 18 18 18 18 18 18 18 18 18 18 18 18 18 18 18 18 18 18 18 18 18 18 18 18 17 17 17 17 17
21 20 20 20 19 19 19 19 19 19 19 19 18 18 18 18 18 18 18 18 18 18 18 18 18 18 18 18 18 18 18 18 18 18 18 18 18 18 18 18 17 17 17
21 20 20 20 19 19 19 19 19 19 19 19 19 18 18 18 18 18 18 18 18 18 18 18 18 18 18 18 18 18 18 18 18 18 18 18 18 18 18 17 17 17 17
21 20 20 20 19 19 19 19 19 19 19 19 18 18 18 18 18 18 18 18 18 18 18 18 18 18 18 18 18 17 17 18 18 17 18 18 18 18 18 17 17 17 17
21 20 20 20 19 19 19 19 19 19 19 19 19 18 18 18 18 18 18 18 18 18 18 18 18 18 18 18 18 17 17 17 18 17 17 17 18 18 18 17 17 17 17
21 21 20 20 19 19 19 19 19 19 19 19 18 18 18 18 18 18 18 18 18 18 18 18 18 18 18 18 18 17 18 18 17 17 17 17 17 17 18 18 17 17 17
21 21 20 20 20 19 19 19 19 19 19 19 18 18 18 18 18 18 18 18 18 18 18 18 18 18 18 18 18 18 18 18 18 17 17 17 17 17 17 17 17 17 17
21 21 20 20 20 20 19 19 19 19 19 19 19 18 18 18 18 18 18 18 18 18 18 18 18 18 17 17 18 18 18 18 18 17 17 17 17 17 17 17 17 17 17
21 21 20 20 20 20 19 19 19 19 19 19 18 18 18 18 18 18 18 18 18 18 18 18 18 17 17 17 17 18 18 18 18 17 17 17 17 17 17 17 17 16 17
21 21 21 20 20 20 20 19 19 19 19 19 18 18 18 18 18 18 18 18 18 18 18 18 17 17 17 17 17 18 18 18 18 18 17 17 17 17 17 17 17 17 16
21 21 20 20 20 20 19 19 19 19 19 19 18 18 18 18 18 18 18 18 18 18 18 17 17 17 17 17 17 18 18 19 18 18 17 17 17 17 17 17 17 17 16
21 21 21 21 20 20 19 19 19 19 19 19 18 18 18 18 18 18 18 18 18 17 17 17 17 17 17 17 17 17 17 18 18 18 17 17 17 17 17 17 16 16 16
21 21 21 21 20 20 19 19 19 19 19 19 18 18 18 18 18 18 18 18 17 17 17 17 17 17 17 17 17 17 17 17 17 18 18 17 17 17 17 16 16 16 16
21 21 20 21 20 20 20 19 19 19 19 19 18 18 18 18 18 18 18 18 17 17 17 17 17 17 17 17 17 17 17 17 17 17 17 17 17 17 16 16 16 16 16
Wind_Speed
4 7 9 7 9 9 10 10 11 12 12 11 12 11 11 11 11 11 12 11 11 11 11 13 13 12 12 12 12 11 11 11 11 11 10 9 9 9 10 9 9 10 12
6 8 10 8 9 9 10 10 11 11 11 11 12 11 11 11 10 10 11 11 10 10 11 13 12 11 11 12 11 11 11 11 10 10 10 10 9 8 9 8 5 8 11
7 8 10 9 9 10 10 11 11 11 11 11 11 10 10 10 10 9 9 10 10 10 10 11 11 11 11 11 10 10 10 10 10 9 9 8 9 9 9 8 8 9 9
7 8 9 9 9 10 10 11 11 11 11 10 10 10 9 9 9 9 9 10 9 9 9 10 10 10 10 10 9 9 9 9 9 9 8 6 7 9 8 9 9 9 9
7 8 10 9 9 10 10 10 10 10 10 10 10 9 9 9 8 8 8 8 8 8 8 8 9 9 9 8 9 8 8 9 8 8 6 6 6 8 8 9 9 9 9
8 8 10 8 9 10 11 10 10 10 9 9 9 9 8 8 7 7 7 7 7 7 7 7 8 8 7 7 8 8 8 8 8 6 5 6 7 9 8 9 9 9 9
8 8 10 10 9 10 11 10 10 9 9 9 8 8 7 7 7 6 6 6 6 6 7 7 7 7 6 6 7 8 8 8 6 5 5 6 7 9 9 9 9 9 9
8 8 11 12 11 10 10 10 9 9 8 8 8 7 7 7 7 6 5 5 6 6 6 6 6 6 7 7 7 7 7 8 6 4 4 5 8 8 8 8 9 9 9
8 8 8 10 12 11 11 10 9 8 7 7 6 6 6 6 6 6 5 5 5 5 5 6 5 6 6 7 7 6 6 6 4 4 5 5 8 8 8 8 8 8 8
7 7 7 8 8 9 10 11 9 8 7 7 6 6 6 6 6 6 5 5 5 4 5 5 5 5 5 7 7 7 7 7 4 4 4 7 9 8 8 8 8 8 8
7 6 6 7 7 7 8 10 10 9 8 7 6 7 5 5 5 5 5 5 4 4 4 4 4 5 6 8 8 8 9 5 4 3 4 9 9 9 8 8 8 8 9
8 7 6 6 6 6 6 7 6 6 7 4 4 4 3 3 3 3 6 5 5 4 5 5 5 7 8 6 9 10 5 4 3 4 6 10 9 9 8 8 8 8 9
8 7 6 5 5 5 5 5 4 4 5 5 4 3 2 2 3 2 2 5 5 5 4 5 6 4 3 2 2 3 3 3 2 3 6 10 8 8 8 8 9 9 9
7 7 6 6 4 4 4 4 4 3 3 3 4 2 2 2 1 2 1 1 2 2 2 2 2 2 2 2 2 2 3 3 2 2 5 9 8 8 8 8 9 9 10
7 7 6 6 5 4 3 2 3 3 3 4 3 2 1 1 1 1 1 1 0 1 2 2 1 2 2 2 2 2 2 2 2 1 4 8 8 8 8 8 9 9 9
7 6 6 6 6 5 4 3 2 3 3 2 2 2 1 1 1 1 1 0 0 0 1 1 1 2 2 2 1 1 1 1 2 2 3 6 9 8 7 7 8 8 9
8 7 7 7 6 5 4 3 3 3 3 2 2 2 1 1 1 0 0 0 1 1 1 1 1 1 2 2 2 1 1 1 1 2 3 3 5 9 8 7 7 8 9
8 8 6 5 6 6 4 3 2 2 2 2 2 2 1 1 1 1 0 0 0 0 1 1 1 1 1 1 1 0 1 1 2 2 3 3 3 3 7 8 7 8 8
8 8 7 6 6 5 5 4 3 3 2 1 1 1 1 1 1 1 0 0 1 0 0 1 1 0 1 0 0 1 1 1 2 2 2 3 3 2 2 7 7 7 7
7 7 8 7 7 6 5 4 3 2 2 2 1 1 1 2 1 1 1 0 1 0 0 0 1 0 1 1 1 0 1 1 1 1 2 2 2 2 2 2 5 6 8
8 8 8 7 7 6 5 5 4 3 2 2 1 1 1 1 2 1 1 1 1 1 1 1 1 2 1 0 1 1 1 2 1 2 1 1 2 2 2 2 3 2 5
9 9 8 8 7 6 5 4 3 2 2 2 1 1 1 2 2 2 1 1 1 1 1 1 1 1 1 1 2 2 1 2 2 2 2 2 1 2 2 2 2 2 2
10 9 8 8 7 6 6 5 4 3 3 3 3 2 2 2 2 1 1 1 1 2 1 1 2 2 2 1 1 2 2 1 1 2 2 1 1 1 1 2 3 3 3
10 9 9 8 7 6 6 5 5 4 4 3 2 2 3 2 2 2 2 2 2 1 1 2 1 2 2 2 1 2 2 2 2 1 2 2 2 1 1 1 1 2 2
9 9 9 8 8 7 6 5 5 5 4 3 3 3 3 3 3 2 2 2 2 2 2 1 1 2 2 2 2 2 1 2 3 3 2 1 2 2 2 2 1 1 1
9 8 9 9 8 7 7 6 6 5 4 4 4 4 4 3 3 3 3 2 2 2 2 2 2 2 2 2 2 2 2 2 2 2 3 3 2 1 1 1 1 1 1
Wind_Direction
106 103 107 113 121 119 114 112 115 120 123 129 130 129 128 130 135 137 135 138 139 141 144 146 146 146 145 145 146 146 146 146 146 144 144 149 152 150 150 153 161 147 134
119 113 116 118 125 122 121 119 118 121 123 124 129 128 129 130 131 132 136 138 136 137 138 142 145 145 145 144 146 148 149 150 149 149 154 157 158 158 157 160 156 131 142
121 120 124 119 125 127 126 123 120 120 121 119 122 125 125 126 128 131 136 136 133 132 136 141 143 144 145 148 150 150 150 152 152 160 173 164 155 159 161 156 145 146 152
122 124 120 123 128 126 122 122 121 119 118 119 120 123 125 126 127 130 133 132 133 136 139 144 147 147 146 150 153 151 148 148 156 179 179 160 154 148 163 158 155 157 160
121 121 118 131 130 126 123 121 117 116 118 121 121 121 123 125 129 130 128 131 135 139 141 144 148 148 147 148 151 150 151 153 171 193 158 149 146 145 156 160 164 164 164
120 120 117 129 132 130 125 122 122 120 119 121 120 118 119 121 121 125 127 132 139 143 145 147 145 146 150 155 155 153 160 171 191 171 152 156 153 154 166 171 173 172 172
116 112 112 119 128 131 127 125 125 123 120 119 120 120 119 119 120 124 127 135 141 143 146 148 147 150 151 151 156 161 175 196 196 166 164 162 152 158 173 178 177 175 176
112 109 112 121 125 128 128 126 126 122 120 120 119 119 119 118 119 124 134 139 143 143 148 150 157 159 153 155 163 168 182 215 190 169 169 155 146 166 176 175 174 175 177
113 112 115 124 130 133 131 128 125 120 119 117 115 117 122 123 123 124 129 132 135 140 142 145 156 166 168 166 173 178 192 222 221 171 168 149 148 165 175 174 176 174 172
116 114 117 121 125 132 132 131 128 124 121 117 117 122 130 137 138 137 147 137 139 140 139 143 149 156 170 173 176 184 198 217 208 169 157 140 151 169 179 178 175 173 174
124 122 123 123 125 130 128 132 139 140 137 140 136 138 155 145 133 143 110 123 141 145 147 148 155 163 176 176 181 190 204 209 174 163 145 137 160 176 185 185 182 182 182
138 136 129 128 131 135 132 134 139 135 129 128 111 122 129 114 110 103 122 137 147 155 164 162 176 192 208 183 174 193 192 182 179 173 147 150 173 185 191 190 191 192 188
142 139 139 135 133 130 129 135 134 135 135 138 125 124 117 125 122 114 122 143 158 172 173 163 191 191 177 157 190 175 163 189 173 162 142 156 178 190 193 196 199 197 195
144 147 144 139 134 134 133 138 142 137 138 135 132 137 130 119 102 90 102 114 157 155 152 178 174 157 152 157 169 165 175 194 175 146 143 159 181 192 197 198 199 200 200
154 153 149 146 144 148 148 161 139 140 143 136 127 126 126 122 103 84 81 89 129 129 156 162 156 147 147 137 149 153 172 171 177 176 150 162 185 196 200 203 202 200 198
157 157 151 155 153 155 157 154 145 148 139 132 136 121 130 127 92 98 97 82 76 136 101 138 131 140 141 120 150 136 182 175 155 194 199 172 180 190 198 202 203 201 197
160 158 157 160 155 157 162 161 159 161 150 146 140 142 174 176 139 161 84 143 65 72 96 124 116 144 154 148 144 149 194 222 212 198 213 208 186 184 191 195 199 197 198
161 159 164 161 155 157 161 168 162 151 148 151 164 163 168 183 185 214 113 78 28 74 134 130 174 158 145 170 143 191 215 211 213 207 210 202 202 188 180 180 192 196 204
166 163 163 163 163 163 163 166 163 155 158 161 166 169 156 200 214 201 103 18 267 261 261 237 120 203 205 131 189 191 239 228 214 216 216 209 196 201 181 158 176 193 200
162 163 165 167 166 167 166 166 164 162 168 161 170 159 181 186 194 224 184 203 260 247 246 337 143 162 254 238 278 306 260 248 243 224 229 205 185 199 202 182 186 188 194
169 169 168 168 167 172 172 179 175 174 174 173 180 163 192 194 194 228 264 172 245 204 223 212 207 184 210 198 232 218 221 212 207 213 214 212 183 191 197 196 222 216 187
174 175 174 175 175 181 170 171 173 176 185 185 186 151 207 203 211 198 209 214 208 193 191 202 203 233 224 218 272 266 238 197 195 183 191 196 207 201 202 199 198 212 233
178 180 179 178 179 180 175 173 166 169 188 187 189 186 192 193 195 212 189 231 215 225 178 226 224 218 236 236 264 284 280 285 269 177 183 180 187 208 219 190 203 202 221
180 180 179 178 178 177 180 184 190 195 200 198 204 188 181 181 194 199 206 212 237 238 184 229 209 243 241 237 232 267 293 315 274 228 203 182 187 212 244 241 210 197 223
177 177 175 174 177 180 187 181 197 206 206 201 199 182 198 185 196 208 210 217 223 235 222 241 239 245 236 250 254 253 260 249 259 266 254 247 235 222 219 227 225 216 237
173 174 171 172 178 183 190 192 199 201 209 211 209 200 206 202 204 206 206 210 218 218 208 218 233 226 245 256 260 260 259 267 269 268 264 257 258 239 214 221 241 229 219
Height
1505 1505 1503 1504 1505 1506 1507 1507 1508 1509 1510 1511 1513 1514 1515 1516 1517 1518 1519 1520 1520 1521 1520 1521 1526 1528 1530 1532 1534 1535 1537 1538 1539 1540 1541 1542 1543 1544 1545 1547 1548 1549 1550
1506 1505 1504 1505 1506 1507 1508 1509 1510 1511 1512 1513 1515 1516 1517 1518 1519 1520 1521 1522 1522 1522 1520 1523 1527 1529 1531 1532 1534 1536 1537 1539 1540 1541 1542 1543 1544 1545 1546 1547 1548 1549 1550
1506 1506 1506 1506 1507 1508 1510 1511 1512 1513 1514 1515 1517 1518 1519 1520 1521 1521 1522 1523 1524 1524 1525 1526 1528 1530 1532 1533 1535 1536 1538 1539 1540 1541 1542 1544 1545 1545 1546 1547 1548 1549 1551
1507 1507 1506 1506 1507 1509 1511 1512 1514 1515 1516 1517 1518 1520 1521 1521 1522 1523 1524 1524 1525 1526 1527 1528 1529 1531 1532 1534 1536 1537 1538 1539 1541 1542 1544 1545 1546 1545 1546 1547 1548 1549 1551
1507 1507 1505 1505 1507 1509 1511 1513 1515 1517 1518 1519 1520 1521 1522 1523 1523 1524 1525 1525 1526 1527 1529 1530 1531 1532 1533 1535 1536 1538 1539 1540 1541 1543 1544 1545 1546 1545 1546 1547 1548 1550 1551
1508 1507 1504 1504 1506 1509 1512 1515 1517 1518 1520 1521 1522 1523 1523 1524 1525 1525 1526 1527 1527 1529 1529 1531 1532 1533 1534 1535 1537 1538 1539 1540 1541 1544 1544 1545 1545 1545 1546 1547 1548 1550 1551
1510 1508 1505 1503 1505 1510 1513 1516 1518 1520 1521 1523 1523 1524 1525 1525 1526 1526 1527 1527 1528 1529 1530 1531 1532 1534 1535 1536 1537 1538 1539 1540 1542 1544 1544 1545 1545 1545 1546 1547 1548 1549 1550
1512 1510 1507 1506 1508 1512 1515 1518 1520 1522 1523 1524 1525 1526 1526 1526 1527 1527 1528 1528 1529 1529 1531 1532 1533 1534 1535 1536 1537 1538 1539 1540 1542 1543 1544 1545 1544 1545 1546 1547 1548 1549 1549
1514 1514 1513 1513 1513 1516 1518 1520 1522 1523 1524 1525 1526 1527 1527 1527 1528 1528 1528 1529 1529 1530 1531 1532 1532 1534 1535 1536 1537 1538 1539 1540 1542 1543 1544 1544 1544 1544 1545 1546 1547 1548 1549
1516 1517 1517 1518 1519 1521 1522 1522 1523 1525 1526 1527 1527 1528 1528 1528 1528 1528 1528 1528 1529 1530 1531 1532 1533 1534 1535 1536 1537 1538 1539 1540 1542 1543 1544 1543 1543 1544 1545 1546 1547 1547 1548
1518 1519 1520 1521 1522 1523 1524 1525 1526 1527 1528 1528 1529 1529 1529 1530 1529 1528 1527 1527 1528 1530 1531 1532 1533 1534 1535 1536 1537 1538 1539 1541 1542 1542 1543 1543 1543 1544 1545 1545 1546 1547 1547
1520 1521 1522 1523 1524 1525 1526 1527 1528 1529 1529 1530 1530 1530 1530 1530 1530 1528 1527 1526 1528 1530 1531 1532 1533 1534 1535 1537 1537 1538 1540 1541 1541 1542 1542 1542 1542 1543 1544 1545 1545 1546 1546
1521 1523 1524 1524 1525 1526 1527 1528 1529 1530 1530 1531 1531 1531 1531 1531 1531 1530 1529 1529 1530 1531 1533 1533 1534 1535 1536 1537 1538 1539 1539 1540 1541 1542 1541 1541 1542 1542 1543 1544 1544 1545 1545
1522 1524 1525 1526 1526 1527 1528 1529 1530 1531 1532 1532 1532 1532 1532 1532 1532 1531 1530 1531 1532 1533 1533 1534 1534 1535 1536 1536 1537 1538 1538 1540 1540 1541 1541 1540 1541 1541 1542 1542 1543 1543 1544
1523 1524 1525 1526 1526 1527 1528 1529 1531 1532 1533 1533 1533 1533 1533 1533 1533 1532 1532 1532 1532 1533 1533 1533 1534 1535 1536 1536 1537 1537 1538 1539 1539 1540 1540 1540 1540 1540 1541 1541 1541 1542 1543
1523 1524 1526 1526 1527 1528 1529 1530 1531 1532 1533 1534 1534 1534 1533 1534 1533 1533 1533 1533 1533 1533 1533 1534 1534 1535 1535 1536 1536 1537 1537 1538 1538 1538 1539 1539 1539 1539 1540 1540 1540 1541 1541
1523 1524 1526 1527 1528 1528 1529 1531 1532 1533 1534 1534 1534 1534 1534 1534 1534 1534 1534 1533 1533 1533 1533 1533 1534 1535 1535 1536 1536 1537 1537 1537 1537 1537 1538 1538 1539 1538 1538 1539 1539 1539 1540
1523 1524 1525 1527 1528 1529 1530 1531 1532 1533 1534 1534 1534 1534 1534 1534 1534 1534 1534 1534 1533 1533 1533 1533 1534 1535 1535 1536 1536 1536 1536 1536 1536 1537 1537 1537 1538 1538 1538 1538 1538 1539 1539
1522 1523 1525 1527 1528 1529 1530 1531 1532 1533 1533 1534 1534 1534 1534 1534 1534 1534 1534 1534 1533 1533 1533 1534 1534 1534 1535 1535 1536 1536 1536 1536 1536 1536 1536 1536 1537 1537 1538 1537 1537 1537 1538
1521 1523 1524 1526 1527 1528 1529 1530 1532 1532 1533 1534 1534 1534 1534 1534 1534 1534 1534 1533 1533 1533 1533 1532 1532 1533 1534 1534 1535 1535 1535 1535 1535 1535 1535 1535 1536 1536 1537 1537 1537 1537 1537
1520 1522 1523 1525 1526 1527 1529 1530 1531 1532 1533 1533 1534 1533 1533 1534 1534 1533 1534 1533 1532 1532 1532 1532 1533 1533 1533 1534 1534 1534 1535 1535 1535 1535 1535 1535 1535 1535 1535 1535 1536 1536 1536
1519 1520 1522 1523 1525 1527 1528 1529 1530 1531 1532 1533 1533 1533 1533 1533 1533 1533 1533 1533 1532 1532 1531 1532 1532 1533 1533 1534 1534 1534 1534 1535 1534 1534 1534 1534 1534 1534 1535 1535 1535 1534 1535
1517 1519 1521 1522 1524 1525 1527 1529 1529 1530 1531 1532 1532 1532 1532 1532 1532 1532 1532 1532 1532 1532 1532 1532 1532 1532 1533 1533 1533 1534 1534 1533 1534 1534 1533 1533 1533 1533 1534 1534 1534 1534 1534
1515 1517 1519 1521 1522 1524 1525 1527 1529 1529 1531 1531 1531 1531 1531 1531 1531 1531 1531 1531 1531 1531 1531 1531 1532 1532 1532 1532 1532 1532 1533 1533 1533 1533 1533 1533 1532 1532 1533 1533 1533 1532 1532
1513 1515 1517 1518 1520 1522 1524 1525 1527 1528 1529 1530 1530 1530 1530 1530 1530 1530 1530 1530 1530 1531 1530 1530 1530 1530 1531 1532 1532 1532 1532 1532 1532 1532 1531 1532 1532 1532 1532 1531 1531 1531 1531
1511 1513 1515 1516 1518 1520 1522 1524 1525 1526 1527 1528 1529 1529 1530 1530 1529 1529 1529 1529 1529 1529 1529 1529 1529 1529 1529 1530 1530 1531 1531 1531 1531 1531 1530 1530 1530 1530 1530 1530 1530 1530 1529